星链-31491 (STARLINK-31491 )

导读

STARLINK-31491是美国于2024年2月23日发射的星链卫星,隶属于SpaceX星链项目。星链计划旨在构建全球卫星互联网星座,为全球提供高速低延迟网络服务,该卫星入轨后将补充星链星座的网络覆盖能力,推动全球互联网普及与天地一体化网络建设。

基本信息
目录编号:
59011
目录名称:
STARLINK-31491
国际标识:
2024-036P
轨道中心:
EARTH
卫星名称:
星链-31491
卫星全名:
星链-31491 (STARLINK-31491 )
卫星状态:
在轨 (已飞行846 天)
发射日期:
2024-02-23 UTC
国别 :
美国 (US)
星等 :
--
轨道信息
数据来源 国际轨道数据
星历时间: 2026-06-18T01:22:43+0800
11小时前
查看轨道信息
半长轴: 6853.364km
偏心率: 0.0000932
轨道倾角: 53.162°
近地点辐角 87.715°
升交点赤经 333.854°
平近点角 272.396°
近地点: 474.588km
远地点: 475.866km
周期: 94.106分钟
每日圈数: 15.301962
详细信息
固有亮度:
5
最大亮度:
0.3
卫星平台:
Starlink v2.0 mini
覆盖范围:
全球
运营商:
太空探索技术公司
运营商所在国:
美国
制造商(研发单位):
太空探索技术公司
制造商所在国:
美国
使用方式:
暂无
卫星简介
星链(Starlink)计划是由太空探索技术公司(SpaceX)提出的一个巨型低轨卫星互联网星座项目,计划在2019年至2024年间在太空搭建由约1.2万颗卫星组成的“星链”网络,其中1584颗将部署在地球上空550千米处的近地轨道,并从2020年开始工作。该卫星仍在工作。
2D轨道图
3D轨道图
轨道高度分析图
轨道倾角分析图
轨道综合分析图
查看轨道综合分析图